Notices

What's New in latest Release from April 7th, 2021:

- Updated Glossary, including Speed of Maximum Gust, and Total Hourly Precipitation

- Updated national and regional climate services offices contacts and prices information

- Addition of station inventory lists for 1981-2010, 1971-2000, and 1961-1990 Normals.

If you haven't already, please take our survey and provide feedback about our website: https://eccc.sondage-survey.ca/f/LanguageSelection.aspx?s=442ca660-fcf1-47c0-95a9-59707d6fd709

Hourly Data Report for January 11, 2005

SHERBROOKE A
QUEBEC

45°26'00.000" N
71°41'00.000" W
241.40 m
7028124
71610
YSC

Download Data

Hourly Data (January 2005)
Hourly Data Report for January 11, 2005
TIME
LST
Temp Definition
°C
Dew Point Definition
°C
Rel Hum Definition
%
Precip. Amount Definition
mm

Wind Dir Definition
10's deg

Wind Spd Definition
km/h
Visibility Definition
km
Stn Press Definition
kPa
Hmdx Definition


Wind Chill Definition


Weather Definition


00:00 -6.8 -12.5 64   30 32 11.3 98.76   -16 Snow
01:00 -8.2 -15.3 57   30 32 15.0 98.89   -17  
02:00 -9.6 -16.0 60   30 30 15.0 99.00   -19  
03:00 -11.1 -17.1 61   33 13 15.0 99.15   -18  
04:00 -12.5 -18.0 63   30 11 15.0 99.28   -19  
05:00 -13.9 -18.8 66   32 7 15.0 99.38   -19  
06:00 -14.9 -19.4 68   29 9 15.0 99.49   -21  
07:00 -16.7 -19.7 78   27 7 15.0 99.55   -22  
08:00 -16.8 -19.7 78   26 6 24.1 99.64   -21 Clear
09:00 -15.0 -19.3 70   23 9 24.1 99.75   -21 Mainly Clear
10:00 -14.0 -19.1 65   28 15 24.1 99.85   -22 Mainly Clear
11:00 -13.3 -19.5 60   27 11 24.1 99.81   -20 Mainly Clear
12:00 -12.1 -19.2 55   30 7 24.1 99.73   -16 Mainly Clear
13:00 -11.3 -19.6 50   30 7 24.1 99.66   -16 Mainly Clear
14:00 -10.5 -19.5 48   30 6 24.1 99.64   -14 Mainly Clear
15:00 -10.0 -19.2 47   26 9 24.1 99.69   -15 Mainly Clear
16:00 -10.6 -19.7 47   26 7 24.1 99.76   -15 Mainly Clear
17:00 -15.1 -18.6 75   23 4 24.1 99.85   -18 Mainly Clear
18:00 -15.6 -19.7 71   12 4 15.0 99.88   -19  
19:00 -15.7 -19.5 73   10 7 15.0 99.89   -21  
20:00 -16.5 -20.3 72   10 13 15.0 99.88   -24  
21:00 -16.8 -20.7 72   10 7 15.0 99.94   -22  
22:00 -16.7 -20.7 71   8 13 15.0 99.92   -24  
23:00 -17.4 -20.7 75   8 9 15.0 99.93   -24  

Notes on Data Quality.

Legend

  • E = Estimated
  • M = Missing
  • NA = Not Available*
  • [empty] = Indicates an unobserved value
Date modified: